Time,TemperatureF,DewpointF,PressureIn,WindDirection,WindDirectionDegrees,WindSpeedMPH,WindSpeedGustMPH,Humidity,HourlyPrecipIn,Conditions,Clouds,dailyrainin,SolarRadiationWatts/m^2,SoftwareType,DateUTC
2013-04-09 00:02:00,49.0,36.0,-100.00,North,3,2.0,5.0,61,0.00,,,0.05,0.000000,,2013-04-09 07:02:00,
2013-04-09 00:12:00,49.0,36.0,-100.00,North,3,2.0,5.0,61,0.00,,,0.05,0.000000,,2013-04-09 07:12:00,
2013-04-09 00:32:00,42.0,37.0,-100.00,ENE,71,1.0,6.0,83,0.00,,,-99.99,0.000000,,2013-04-09 07:32:00,
2013-04-09 01:42:00,44.0,36.0,-100.00,North,2,3.0,5.0,74,-99.99,,,0.02,0.000000,,2013-04-09 08:42:00,
2013-04-09 01:52:00,44.0,36.0,-100.00,North,2,3.0,5.0,74,-99.99,,,0.02,0.000000,,2013-04-09 08:52:00,
2013-04-09 02:02:00,44.0,36.0,-100.00,North,2,3.0,5.0,74,-99.99,,,0.02,0.000000,,2013-04-09 09:02:00,
2013-04-09 02:12:00,44.0,36.0,-100.00,North,2,3.0,5.0,74,-99.99,,,0.02,0.000000,,2013-04-09 09:12:00,
2013-04-09 02:44:00,45.0,35.0,-100.00,East,85,3.0,5.0,69,0.00,,,0.01,0.000000,,2013-04-09 09:44:00,
2013-04-09 02:52:00,45.0,35.0,-100.00,East,85,3.0,5.0,69,0.00,,,0.01,0.000000,,2013-04-09 09:52:00,
2013-04-09 03:03:00,45.0,35.0,-100.00,East,85,3.0,5.0,69,0.00,,,0.01,0.000000,,2013-04-09 10:03:00,
2013-04-09 03:12:00,45.0,35.0,-100.00,East,85,3.0,5.0,69,0.00,,,0.01,0.000000,,2013-04-09 10:12:00,
2013-04-09 03:33:00,43.0,36.0,-100.00,North,5,3.0,5.0,75,0.00,,,0.01,0.000000,,2013-04-09 10:33:00,
2013-04-09 03:43:00,43.0,36.0,-100.00,North,5,3.0,5.0,75,0.00,,,0.01,0.000000,,2013-04-09 10:43:00,
2013-04-09 03:53:00,43.0,36.0,-100.00,North,5,3.0,5.0,75,0.00,,,0.01,0.000000,,2013-04-09 10:53:00,
2013-04-09 04:02:00,43.0,36.0,-100.00,North,5,3.0,5.0,75,0.00,,,0.01,0.000000,,2013-04-09 11:02:00,
2013-04-09 04:12:00,43.0,36.0,-100.00,North,5,3.0,5.0,75,0.00,,,0.01,0.000000,,2013-04-09 11:12:00,
2013-04-09 04:32:00,44.0,36.0,-100.00,North,359,4.0,8.0,72,0.00,,,0.01,0.000000,,2013-04-09 11:32:00,
2013-04-09 04:42:00,44.0,36.0,-100.00,North,359,4.0,8.0,72,0.00,,,0.01,0.000000,,2013-04-09 11:42:00,
2013-04-09 04:52:00,44.0,36.0,-100.00,North,359,4.0,8.0,72,0.00,,,0.01,0.000000,,2013-04-09 11:52:00,
2013-04-09 05:02:00,44.0,36.0,-100.00,North,359,4.0,8.0,72,0.00,,,0.01,0.000000,,2013-04-09 12:02:00,
2013-04-09 05:12:00,44.0,36.0,-100.00,North,359,4.0,8.0,72,0.00,,,0.01,0.000000,,2013-04-09 12:12:00,
2013-04-09 05:33:00,45.0,36.0,-100.00,NNW,344,3.0,12.0,70,0.00,,,0.00,0.000000,,2013-04-09 12:33:00,
2013-04-09 05:43:00,45.0,36.0,-100.00,NNW,344,3.0,12.0,70,0.00,,,0.00,0.000000,,2013-04-09 12:43:00,
2013-04-09 05:53:00,45.0,36.0,-100.00,NNW,344,3.0,12.0,70,0.00,,,0.00,0.000000,,2013-04-09 12:53:00,
2013-04-09 06:02:00,45.0,36.0,-100.00,NNW,344,3.0,12.0,70,0.00,,,0.00,0.000000,,2013-04-09 13:02:00,
2013-04-09 06:12:00,45.0,36.0,-100.00,NNW,344,3.0,12.0,70,0.00,,,0.00,0.000000,,2013-04-09 13:12:00,
2013-04-09 06:33:00,40.0,36.0,-100.00,West,263,2.0,5.0,84,0.00,,,0.00,0.000000,,2013-04-09 13:33:00,
2013-04-09 06:43:00,40.0,36.0,-100.00,West,263,2.0,5.0,84,0.00,,,0.00,0.000000,,2013-04-09 13:43:00,
2013-04-09 06:53:00,40.0,36.0,-100.00,West,263,2.0,5.0,84,0.00,,,0.00,0.000000,,2013-04-09 13:53:00,
2013-04-09 07:02:00,40.0,36.0,-100.00,West,263,2.0,5.0,84,0.00,,,0.00,0.000000,,2013-04-09 14:02:00,
2013-04-09 07:12:00,40.0,36.0,-100.00,West,263,2.0,5.0,84,0.00,,,0.00,0.000000,,2013-04-09 14:12:00,
2013-04-09 07:43:00,43.0,36.0,-100.00,NNW,340,4.0,7.0,77,0.00,,,0.00,15.000000,,2013-04-09 14:43:00,
2013-04-09 07:52:00,43.0,36.0,-100.00,NNW,340,4.0,7.0,77,0.00,,,0.00,15.000000,,2013-04-09 14:52:00,
2013-04-09 08:02:00,43.0,36.0,-100.00,NNW,340,4.0,7.0,77,0.00,,,0.00,15.000000,,2013-04-09 15:02:00,
2013-04-09 08:12:00,43.0,36.0,-100.00,NNW,340,4.0,7.0,77,0.00,,,0.00,15.000000,,2013-04-09 15:12:00,
2013-04-09 08:34:00,50.0,39.0,-100.00,NNW,342,5.0,10.0,66,0.00,,,0.00,170.000000,,2013-04-09 15:34:00,
2013-04-09 08:43:00,50.0,39.0,-100.00,NNW,342,5.0,10.0,66,0.00,,,0.00,170.000000,,2013-04-09 15:43:00,
2013-04-09 08:53:00,50.0,39.0,-100.00,NNW,342,5.0,10.0,66,0.00,,,0.00,170.000000,,2013-04-09 15:53:00,
2013-04-09 09:03:00,50.0,39.0,-100.00,NNW,342,5.0,10.0,66,0.00,,,0.00,170.000000,,2013-04-09 16:03:00,
2013-04-09 09:12:00,50.0,39.0,-100.00,NNW,342,5.0,10.0,66,0.00,,,0.00,170.000000,,2013-04-09 16:12:00,
2013-04-09 09:34:00,55.0,39.0,-100.00,NNW,333,9.0,19.0,54,0.00,,,-99.99,376.000000,,2013-04-09 16:34:00,
2013-04-09 09:42:00,55.0,39.0,-100.00,NNW,333,9.0,19.0,54,0.00,,,-99.99,376.000000,,2013-04-09 16:42:00,
2013-04-09 09:53:00,55.0,39.0,-100.00,NNW,333,9.0,19.0,54,0.00,,,-99.99,376.000000,,2013-04-09 16:53:00,
2013-04-09 10:02:00,55.0,39.0,-100.00,NNW,333,9.0,19.0,54,0.00,,,-99.99,376.000000,,2013-04-09 17:02:00,
2013-04-09 10:12:00,55.0,39.0,-100.00,NNW,333,9.0,19.0,54,0.00,,,-99.99,376.000000,,2013-04-09 17:12:00,
2013-04-09 10:33:00,62.0,37.0,-100.00,NNW,340,12.0,22.0,40,0.00,,,0.00,572.000000,,2013-04-09 17:33:00,
2013-04-09 10:43:00,62.0,37.0,-100.00,NNW,340,12.0,22.0,40,0.00,,,0.00,572.000000,,2013-04-09 17:43:00,
2013-04-09 10:53:00,62.0,37.0,-100.00,NNW,340,12.0,22.0,40,0.00,,,0.00,572.000000,,2013-04-09 17:53:00,
2013-04-09 11:02:00,62.0,37.0,-100.00,NNW,340,12.0,22.0,40,0.00,,,0.00,572.000000,,2013-04-09 18:02:00,
2013-04-09 11:12:00,62.0,37.0,-100.00,NNW,340,12.0,22.0,40,0.00,,,0.00,572.000000,,2013-04-09 18:12:00,
2013-04-09 11:33:00,65.0,34.0,-100.00,NNW,331,14.0,27.0,32,0.00,,,0.00,735.000000,,2013-04-09 18:33:00,
2013-04-09 11:43:00,65.0,34.0,-100.00,NNW,331,14.0,27.0,32,0.00,,,0.00,735.000000,,2013-04-09 18:43:00,
2013-04-09 11:53:00,65.0,34.0,-100.00,NNW,331,14.0,27.0,32,0.00,,,0.00,735.000000,,2013-04-09 18:53:00,
2013-04-09 12:02:00,65.0,34.0,-100.00,NNW,331,14.0,27.0,32,0.00,,,0.00,735.000000,,2013-04-09 19:02:00,
2013-04-09 12:11:00,65.0,34.0,-100.00,NNW,331,14.0,27.0,32,0.00,,,0.00,735.000000,,2013-04-09 19:11:00,
2013-04-09 12:52:00,67.0,35.0,-100.00,NNW,328,14.0,26.0,30,0.00,,,0.00,845.000000,,2013-04-09 19:52:00,
2013-04-09 13:02:00,67.0,35.0,-100.00,NNW,328,14.0,26.0,30,0.00,,,0.00,845.000000,,2013-04-09 20:02:00,
2013-04-09 13:12:00,67.0,35.0,-100.00,NNW,328,14.0,26.0,30,0.00,,,0.00,845.000000,,2013-04-09 20:12:00,
2013-04-09 13:44:00,70.0,36.0,-100.00,NW,318,13.0,26.0,29,0.00,,,0.00,898.000000,,2013-04-09 20:44:00,
2013-04-09 13:52:00,70.0,36.0,-100.00,NW,318,13.0,26.0,29,0.00,,,0.00,898.000000,,2013-04-09 20:52:00,
2013-04-09 14:02:00,70.0,36.0,-100.00,NW,318,13.0,26.0,29,0.00,,,0.00,898.000000,,2013-04-09 21:02:00,
2013-04-09 14:12:00,70.0,36.0,-100.00,NW,318,13.0,26.0,29,0.00,,,0.00,898.000000,,2013-04-09 21:12:00,
2013-04-09 14:53:00,71.0,36.0,-100.00,NW,325,15.0,27.0,28,0.00,,,0.00,893.000000,,2013-04-09 21:53:00,
2013-04-09 15:02:00,71.0,36.0,-100.00,NW,325,15.0,27.0,28,0.00,,,0.00,893.000000,,2013-04-09 22:02:00,
2013-04-09 15:12:00,71.0,36.0,-100.00,NW,325,15.0,27.0,28,0.00,,,0.00,893.000000,,2013-04-09 22:12:00,
2013-04-09 15:33:00,73.0,36.0,-100.00,NW,319,15.0,27.0,26,0.00,,,-99.99,832.000000,,2013-04-09 22:33:00,
2013-04-09 15:43:00,73.0,36.0,-100.00,NW,319,15.0,27.0,26,0.00,,,-99.99,832.000000,,2013-04-09 22:43:00,
2013-04-09 15:53:00,73.0,36.0,-100.00,NW,319,15.0,27.0,26,0.00,,,-99.99,832.000000,,2013-04-09 22:53:00,
2013-04-09 16:02:00,73.0,36.0,-100.00,NW,319,15.0,27.0,26,0.00,,,-99.99,832.000000,,2013-04-09 23:02:00,
2013-04-09 16:12:00,73.0,36.0,-100.00,NW,319,15.0,27.0,26,0.00,,,-99.99,832.000000,,2013-04-09 23:12:00,
2013-04-09 16:33:00,74.0,35.0,-100.00,NNW,335,15.0,32.0,24,0.00,,,0.00,712.000000,,2013-04-09 23:33:00,
2013-04-09 16:42:00,74.0,35.0,-100.00,NNW,335,15.0,32.0,24,0.00,,,0.00,712.000000,,2013-04-09 23:42:00,
2013-04-09 16:53:00,74.0,35.0,-100.00,NNW,335,15.0,32.0,24,0.00,,,0.00,712.000000,,2013-04-09 23:53:00,
2013-04-09 17:02:00,74.0,35.0,-100.00,NNW,335,15.0,32.0,24,0.00,,,0.00,712.000000,,2013-04-10 00:02:00,
2013-04-09 17:11:00,74.0,35.0,-100.00,NNW,335,15.0,32.0,24,0.00,,,0.00,712.000000,,2013-04-10 00:11:00,
2013-04-09 17:43:00,74.0,35.0,-100.00,NNW,330,11.0,30.0,24,0.00,,,-99.99,544.000000,,2013-04-10 00:43:00,
2013-04-09 17:52:00,74.0,35.0,-100.00,NNW,330,11.0,30.0,24,0.00,,,-99.99,544.000000,,2013-04-10 00:52:00,
2013-04-09 18:02:00,74.0,35.0,-100.00,NNW,330,11.0,30.0,24,0.00,,,-99.99,544.000000,,2013-04-10 01:02:00,
2013-04-09 18:11:00,74.0,35.0,-100.00,NNW,330,11.0,30.0,24,0.00,,,-99.99,544.000000,,2013-04-10 01:11:00,
2013-04-09 18:33:00,74.0,37.0,-100.00,NNW,342,8.0,21.0,26,0.00,,,0.00,347.000000,,2013-04-10 01:33:00,
2013-04-09 18:43:00,74.0,37.0,-100.00,NNW,342,8.0,21.0,26,0.00,,,0.00,347.000000,,2013-04-10 01:43:00,
2013-04-09 18:52:00,74.0,37.0,-100.00,NNW,342,8.0,21.0,26,0.00,,,0.00,347.000000,,2013-04-10 01:52:00,
2013-04-09 19:02:00,74.0,37.0,-100.00,NNW,342,8.0,21.0,26,0.00,,,0.00,347.000000,,2013-04-10 02:02:00,
2013-04-09 19:12:00,74.0,37.0,-100.00,NNW,342,8.0,21.0,26,0.00,,,0.00,347.000000,,2013-04-10 02:12:00,
2013-04-09 19:33:00,70.0,38.0,-100.00,NNW,346,6.0,15.0,31,0.00,,,-99.99,122.000000,,2013-04-10 02:33:00,
2013-04-09 19:43:00,70.0,38.0,-100.00,NNW,346,6.0,15.0,31,0.00,,,-99.99,122.000000,,2013-04-10 02:43:00,
2013-04-09 19:52:00,70.0,38.0,-100.00,NNW,346,6.0,15.0,31,0.00,,,-99.99,122.000000,,2013-04-10 02:52:00,
2013-04-09 20:02:00,70.0,38.0,-100.00,NNW,346,6.0,15.0,31,0.00,,,-99.99,122.000000,,2013-04-10 03:02:00,
2013-04-09 20:12:00,70.0,38.0,-100.00,NNW,346,6.0,15.0,31,0.00,,,-99.99,122.000000,,2013-04-10 03:12:00,
2013-04-09 20:13:00,64.0,38.0,-100.00,North,349,4.0,8.0,38,0.00,,,0.00,5.000000,,2013-04-10 03:13:00,
2013-04-09 20:43:00,64.0,38.0,-100.00,North,349,4.0,8.0,38,0.00,,,0.00,5.000000,,2013-04-10 03:43:00,
2013-04-09 20:53:00,64.0,38.0,-100.00,North,349,4.0,8.0,38,0.00,,,0.00,5.000000,,2013-04-10 03:53:00,
2013-04-09 21:03:00,64.0,38.0,-100.00,North,349,4.0,8.0,38,0.00,,,0.00,5.000000,,2013-04-10 04:03:00,
2013-04-09 21:33:00,62.0,39.0,-100.00,NNE,21,4.0,8.0,42,0.00,,,0.00,0.000000,,2013-04-10 04:33:00,
2013-04-09 21:43:00,62.0,39.0,-100.00,NNE,21,4.0,8.0,42,0.00,,,0.00,0.000000,,2013-04-10 04:43:00,
2013-04-09 21:53:00,62.0,39.0,-100.00,NNE,21,4.0,8.0,42,0.00,,,0.00,0.000000,,2013-04-10 04:53:00,
2013-04-09 22:02:00,62.0,39.0,-100.00,NNE,21,4.0,8.0,42,0.00,,,0.00,0.000000,,2013-04-10 05:02:00,
2013-04-09 22:12:00,62.0,39.0,-100.00,NNE,21,4.0,8.0,42,0.00,,,0.00,0.000000,,2013-04-10 05:12:00,
2013-04-09 22:33:00,56.0,39.0,-100.00,East,94,4.0,8.0,53,0.00,,,0.00,0.000000,,2013-04-10 05:33:00,
2013-04-09 22:43:00,56.0,39.0,-100.00,East,94,4.0,8.0,53,0.00,,,0.00,0.000000,,2013-04-10 05:43:00,
2013-04-09 22:53:00,56.0,39.0,-100.00,East,94,4.0,8.0,53,0.00,,,0.00,0.000000,,2013-04-10 05:53:00,
2013-04-09 23:02:00,56.0,39.0,-100.00,East,94,4.0,8.0,53,0.00,,,0.00,0.000000,,2013-04-10 06:02:00,
2013-04-09 23:12:00,56.0,39.0,-100.00,East,94,4.0,8.0,53,0.00,,,0.00,0.000000,,2013-04-10 06:12:00,
2013-04-09 23:42:00,56.0,37.0,-100.00,East,79,4.0,8.0,48,0.00,,,-99.99,0.000000,,2013-04-10 06:42:00,
2013-04-09 23:52:00,56.0,37.0,-100.00,East,79,4.0,8.0,48,0.00,,,-99.99,0.000000,,2013-04-10 06:52:00,